Location: Acts Church of Fort Worth
(32.6786°N, 97.2668°W)
Time: 21:57:57
(UTC+00:00)

CZ-2D R/B - Pass Details

Date: 18 January 2026
Orbit: 525 x 595 km, 98.0° (Epoch: 10 February)

Event Time Altitude Azimuth Distance (km) Brightness Sun altitude
Rises 00:52:26 0° 160° (SSE) 2,678 6.8 -13.6°
Reaches altitude 10° 00:54:34 10° 156° (SSE) 1,782 5.8 -14.0°
Maximum altitude 00:58:21 62° 76° (ENE) 600 3.2 -14.8°
Drops below altitude 10° 01:02:07 10° 355° (N) 1,773 5.8 -15.5°
Sets 01:04:14 0° 352° (N) 2,663 6.7 -16.0°
